TimeEDT,TemperatureF,Dew PointF,Humidity,Sea Level PressureIn,VisibilityMPH,Wind Direction,Wind SpeedMPH,Gust SpeedMPH,PrecipitationIn,Events,Conditions,WindDirDegrees,DateUTC
12:53 AM,77.0,73.9,90,30.01,10.0,ENE,3.5,-,N/A,,Partly Cloudy,70,2013-09-12 04:53:00
1:53 AM,75.9,73.9,94,29.99,10.0,ENE,4.6,-,N/A,,Partly Cloudy,70,2013-09-12 05:53:00
2:53 AM,75.9,73.9,94,29.99,10.0,Calm,Calm,-,N/A,,Clear,0,2013-09-12 06:53:00
3:53 AM,75.9,73.9,94,29.98,7.0,Calm,Calm,-,0.00,Rain,Light Rain,0,2013-09-12 07:53:00
4:53 AM,75.9,73.9,94,29.96,10.0,East,4.6,-,0.01,,Mostly Cloudy,80,2013-09-12 08:53:00
5:53 AM,75.0,73.9,96,29.98,10.0,Calm,Calm,-,N/A,,Scattered Clouds,0,2013-09-12 09:53:00
6:53 AM,75.9,75.0,97,29.99,8.0,Calm,Calm,-,0.00,Rain,Light Rain,0,2013-09-12 10:53:00
7:53 AM,75.9,75.0,97,29.99,9.0,ENE,3.5,-,0.04,,Clear,60,2013-09-12 11:53:00
8:53 AM,77.0,75.0,94,30.00,10.0,East,3.5,-,N/A,,Clear,80,2013-09-12 12:53:00
9:25 AM,77.0,75.2,94,30.01,10.0,SE,5.8,-,N/A,,Partly Cloudy,130,2013-09-12 13:25:00
9:53 AM,78.1,75.0,90,30.01,10.0,East,3.5,-,N/A,,Clear,90,2013-09-12 13:53:00
10:53 AM,82.0,75.0,79,30.01,10.0,SSE,6.9,-,N/A,,Mostly Cloudy,150,2013-09-12 14:53:00
11:53 AM,82.9,73.0,72,30.01,10.0,SE,5.8,-,N/A,,Scattered Clouds,130,2013-09-12 15:53:00
12:53 PM,84.9,71.1,63,29.98,10.0,Variable,4.6,-,N/A,,Mostly Cloudy,0,2013-09-12 16:53:00
1:53 PM,87.1,73.0,63,29.96,10.0,ENE,3.5,-,N/A,,Partly Cloudy,70,2013-09-12 17:53:00
2:53 PM,84.9,73.0,67,29.94,10.0,West,8.1,-,N/A,,Overcast,280,2013-09-12 18:53:00
3:06 PM,82.4,75.2,79,29.93,1.5,West,6.9,-,0.01,Rain,Rain,270,2013-09-12 19:06:00
3:24 PM,78.8,66.2,65,29.93,0.2,North,10.4,17.3,0.35,Rain,Heavy Rain,10,2013-09-12 19:24:00
3:40 PM,77.0,71.6,83,29.91,7.0,NNE,13.8,-,0.71,Rain,Light Rain,30,2013-09-12 19:40:00
3:48 PM,78.8,71.6,78,29.90,7.0,NE,10.4,-,0.71,,Overcast,40,2013-09-12 19:48:00
3:53 PM,81.0,72.0,74,29.91,7.0,NE,8.1,-,0.71,,Mostly Cloudy,40,2013-09-12 19:53:00
4:53 PM,84.9,73.0,67,29.88,10.0,Variable,4.6,-,N/A,,Partly Cloudy,0,2013-09-12 20:53:00
5:53 PM,87.1,72.0,61,29.90,10.0,Variable,5.8,-,N/A,,Partly Cloudy,0,2013-09-12 21:53:00
6:33 PM,77.0,73.4,89,29.92,10.0,NE,20.7,28.8,N/A,,Mostly Cloudy,40,2013-09-12 22:33:00
6:53 PM,75.9,73.0,91,29.94,10.0,NE,13.8,19.6,N/A,,Overcast,50,2013-09-12 22:53:00
7:00 PM,75.2,73.4,94,29.93,10.0,ENE,12.7,-,N/A,,Overcast,60,2013-09-12 23:00:00
7:53 PM,75.9,72.0,87,29.95,10.0,East,5.8,-,N/A,,Overcast,90,2013-09-12 23:53:00
8:26 PM,75.2,73.4,94,29.96,10.0,NNE,9.2,-,0.00,Rain,Light Rain,30,2013-09-13 00:26:00
8:53 PM,75.0,73.0,94,29.96,6.0,NNE,4.6,-,0.01,Rain,Light Rain,20,2013-09-13 00:53:00
9:53 PM,75.0,73.0,94,29.93,10.0,SSE,4.6,-,0.00,,Mostly Cloudy,160,2013-09-13 01:53:00
10:53 PM,75.0,73.0,94,29.93,10.0,NE,4.6,-,N/A,,Clear,50,2013-09-13 02:53:00
11:53 PM,73.9,73.0,97,29.92,10.0,Calm,Calm,-,N/A,,Clear,0,2013-09-13 03:53:00